Time,TemperatureF,DewpointF,PressureIn,WindDirection,WindDirectionDegrees,WindSpeedMPH,WindSpeedGustMPH,Humidity,HourlyPrecipIn,Conditions,Clouds,dailyrainin,SoftwareType,DateUTC
2013-05-20 00:00:00,67.3,66.7,30.10,South,173,3.0,3.0,98,0.00,,,0.76,Wunderground v.1.15,2013-05-20 04:00:00,
2013-05-20 00:01:00,67.3,66.7,30.10,South,173,3.0,3.0,98,0.00,,,0.00,Wunderground v.1.15,2013-05-20 04:01:00,
2013-05-20 00:02:00,67.3,66.7,30.10,South,173,3.0,3.0,98,0.00,,,0.00,Wunderground v.1.15,2013-05-20 04:02:00,
2013-05-20 00:03:00,67.3,66.7,30.10,South,180,3.0,4.0,98,0.00,,,0.00,Wunderground v.1.15,2013-05-20 04:03:00,
2013-05-20 00:05:00,67.3,66.7,30.10,South,191,3.0,4.0,98,0.00,,,0.00,Wunderground v.1.15,2013-05-20 04:05:00,
2013-05-20 00:09:00,67.3,66.7,30.10,South,191,2.0,4.0,98,0.00,,,0.00,Wunderground v.1.15,2013-05-20 04:09:00,
2013-05-20 00:15:00,67.3,66.7,30.09,SSW,192,3.0,5.0,98,0.00,,,0.00,Wunderground v.1.15,2013-05-20 04:15:00,
2013-05-20 00:21:00,67.3,66.7,30.09,SSW,210,3.0,3.0,98,0.00,,,0.00,Wunderground v.1.15,2013-05-20 04:21:00,
2013-05-20 00:27:00,67.3,66.7,30.09,SSW,202,3.0,3.0,98,0.00,,,0.00,Wunderground v.1.15,2013-05-20 04:27:00,
2013-05-20 00:33:00,67.3,66.7,30.09,South,184,2.0,6.0,98,0.00,,,0.01,Wunderground v.1.15,2013-05-20 04:33:00,
2013-05-20 00:39:00,67.2,66.6,30.09,South,179,3.0,6.0,98,0.00,,,0.01,Wunderground v.1.15,2013-05-20 04:39:00,
2013-05-20 00:45:00,67.2,66.6,30.09,SSW,198,3.0,6.0,98,0.00,,,0.01,Wunderground v.1.15,2013-05-20 04:45:00,
2013-05-20 00:50:00,67.2,66.6,30.09,South,175,3.0,3.0,98,0.00,,,0.01,Wunderground v.1.15,2013-05-20 04:50:00,
2013-05-20 00:56:00,67.2,66.6,30.09,SSW,211,2.0,6.0,98,0.00,,,0.01,Wunderground v.1.15,2013-05-20 04:56:00,
2013-05-20 01:02:00,67.2,66.6,30.09,SSW,206,2.0,4.0,98,0.00,,,0.01,Wunderground v.1.15,2013-05-20 05:02:00,
2013-05-20 01:08:00,67.1,66.2,30.09,SSW,198,3.0,4.0,97,0.00,,,0.01,Wunderground v.1.15,2013-05-20 05:08:00,
2013-05-20 01:13:00,67.1,66.2,30.09,South,175,3.0,3.0,97,0.00,,,0.01,Wunderground v.1.15,2013-05-20 05:13:00,
2013-05-20 01:19:00,67.1,66.2,30.09,South,175,2.0,3.0,97,0.00,,,0.01,Wunderground v.1.15,2013-05-20 05:19:00,
2013-05-20 01:25:00,67.1,66.2,30.09,South,175,2.0,3.0,97,0.00,,,0.01,Wunderground v.1.15,2013-05-20 05:25:00,
2013-05-20 01:31:00,67.1,66.2,30.08,South,186,3.0,6.0,97,0.00,,,0.01,Wunderground v.1.15,2013-05-20 05:31:00,
2013-05-20 01:37:00,67.1,66.2,30.08,South,190,2.0,6.0,97,0.00,,,0.01,Wunderground v.1.15,2013-05-20 05:37:00,
2013-05-20 01:43:00,67.1,66.5,30.08,SSW,196,2.0,6.0,98,0.00,,,0.02,Wunderground v.1.15,2013-05-20 05:43:00,
2013-05-20 01:49:00,67.1,66.5,30.08,SSW,196,1.0,6.0,98,0.00,,,0.02,Wunderground v.1.15,2013-05-20 05:49:00,
2013-05-20 01:54:00,67.1,66.5,30.08,SSW,196,1.0,6.0,98,0.00,,,0.02,Wunderground v.1.15,2013-05-20 05:54:00,
2013-05-20 02:00:00,67.1,66.5,30.07,SSW,196,1.0,1.0,98,0.00,,,0.02,Wunderground v.1.15,2013-05-20 06:00:00,
2013-05-20 02:06:00,67.2,66.6,30.07,South,171,0.0,5.0,98,0.00,,,0.02,Wunderground v.1.15,2013-05-20 06:06:00,
2013-05-20 02:12:00,67.2,66.6,30.07,South,183,2.0,2.0,98,0.00,,,0.02,Wunderground v.1.15,2013-05-20 06:12:00,
2013-05-20 02:18:00,67.2,66.6,30.08,SSW,199,3.0,6.0,98,0.00,,,0.02,Wunderground v.1.15,2013-05-20 06:18:00,
2013-05-20 02:24:00,67.2,66.6,30.07,South,174,2.0,3.0,98,0.00,,,0.02,Wunderground v.1.15,2013-05-20 06:24:00,
2013-05-20 02:30:00,67.2,66.6,30.07,SSW,199,2.0,2.0,98,0.00,,,0.02,Wunderground v.1.15,2013-05-20 06:30:00,
2013-05-20 02:35:00,67.3,66.7,30.07,SSW,194,3.0,7.0,98,0.00,,,0.02,Wunderground v.1.15,2013-05-20 06:35:00,
2013-05-20 02:41:00,67.3,66.7,30.07,South,179,2.0,7.0,98,0.00,,,0.02,Wunderground v.1.15,2013-05-20 06:41:00,
2013-05-20 02:47:00,67.3,66.7,30.07,SSW,193,3.0,7.0,98,0.00,,,0.03,Wunderground v.1.15,2013-05-20 06:47:00,
2013-05-20 02:53:00,67.3,66.7,30.07,SSW,194,3.0,7.0,98,0.00,,,0.03,Wunderground v.1.15,2013-05-20 06:53:00,
2013-05-20 02:59:00,67.3,66.7,30.07,South,173,2.0,7.0,98,0.00,,,0.03,Wunderground v.1.15,2013-05-20 06:59:00,
2013-05-20 03:05:00,67.3,66.7,30.06,South,182,2.0,5.0,98,0.00,,,0.03,Wunderground v.1.15,2013-05-20 07:05:00,
2013-05-20 03:11:00,67.3,66.7,30.07,South,185,3.0,5.0,98,0.00,,,0.03,Wunderground v.1.15,2013-05-20 07:11:00,
2013-05-20 03:17:00,67.3,66.7,30.06,SSW,206,3.0,5.0,98,0.00,,,0.03,Wunderground v.1.15,2013-05-20 07:17:00,
2013-05-20 03:22:00,67.3,66.7,30.06,SSW,205,3.0,4.0,98,0.00,,,0.03,Wunderground v.1.15,2013-05-20 07:22:00,
2013-05-20 03:28:00,67.3,66.7,30.06,SSW,205,3.0,4.0,98,0.00,,,0.03,Wunderground v.1.15,2013-05-20 07:28:00,
2013-05-20 03:34:00,67.3,66.7,30.06,South,186,2.0,7.0,98,0.00,,,0.03,Wunderground v.1.15,2013-05-20 07:34:00,
2013-05-20 03:40:00,67.3,66.7,30.05,South,175,3.0,3.0,98,0.00,,,0.03,Wunderground v.1.15,2013-05-20 07:40:00,
2013-05-20 03:46:00,67.3,66.7,30.06,SSE,162,2.0,7.0,98,0.00,,,0.03,Wunderground v.1.15,2013-05-20 07:46:00,
2013-05-20 03:52:00,67.3,66.7,30.05,SSE,162,1.0,7.0,98,0.00,,,0.03,Wunderground v.1.15,2013-05-20 07:52:00,
2013-05-20 03:58:00,67.3,66.7,30.05,SSE,162,1.0,7.0,98,0.00,,,0.03,Wunderground v.1.15,2013-05-20 07:58:00,
2013-05-20 04:04:00,67.3,66.7,30.06,SSE,162,1.0,1.0,98,0.00,,,0.03,Wunderground v.1.15,2013-05-20 08:04:00,
2013-05-20 04:10:00,67.3,66.7,30.06,South,171,1.0,1.0,98,0.00,,,0.03,Wunderground v.1.15,2013-05-20 08:10:00,
2013-05-20 04:15:00,67.3,66.7,30.06,South,170,2.0,4.0,98,0.00,,,0.03,Wunderground v.1.15,2013-05-20 08:15:00,
2013-05-20 04:21:00,67.3,66.7,30.06,South,190,2.0,2.0,98,0.00,,,0.03,Wunderground v.1.15,2013-05-20 08:21:00,
2013-05-20 04:27:00,67.3,66.7,30.06,South,171,3.0,6.0,98,0.00,,,0.03,Wunderground v.1.15,2013-05-20 08:27:00,
2013-05-20 04:33:00,67.3,66.7,30.06,SSW,210,3.0,6.0,98,0.00,,,0.03,Wunderground v.1.15,2013-05-20 08:33:00,
2013-05-20 04:39:00,67.3,66.7,30.07,South,173,2.0,6.0,98,0.00,,,0.03,Wunderground v.1.15,2013-05-20 08:39:00,
2013-05-20 04:45:00,67.3,66.7,30.06,South,187,2.0,6.0,98,0.00,,,0.03,Wunderground v.1.15,2013-05-20 08:45:00,
2013-05-20 04:51:00,67.3,66.7,30.06,South,187,2.0,6.0,98,0.00,,,0.03,Wunderground v.1.15,2013-05-20 08:51:00,
2013-05-20 04:56:00,67.3,66.7,30.06,South,187,2.0,6.0,98,0.00,,,0.03,Wunderground v.1.15,2013-05-20 08:56:00,
2013-05-20 05:02:00,67.2,66.6,30.06,South,172,2.0,5.0,98,0.00,,,0.03,Wunderground v.1.15,2013-05-20 09:02:00,
2013-05-20 05:08:00,67.2,66.6,30.06,South,172,2.0,5.0,98,0.00,,,0.03,Wunderground v.1.15,2013-05-20 09:08:00,
2013-05-20 05:14:00,67.2,66.6,30.07,South,177,2.0,4.0,98,0.00,,,0.03,Wunderground v.1.15,2013-05-20 09:14:00,
2013-05-20 05:20:00,67.2,66.6,30.07,South,173,2.0,2.0,98,0.00,,,0.03,Wunderground v.1.15,2013-05-20 09:20:00,
2013-05-20 05:26:00,67.1,66.5,30.07,SSE,163,1.0,4.0,98,0.00,,,0.03,Wunderground v.1.15,2013-05-20 09:26:00,
2013-05-20 05:32:00,67.1,66.5,30.07,South,175,1.0,7.0,98,0.00,,,0.03,Wunderground v.1.15,2013-05-20 09:32:00,
2013-05-20 05:37:00,67.1,66.5,30.07,South,175,1.0,7.0,98,0.00,,,0.03,Wunderground v.1.15,2013-05-20 09:37:00,
2013-05-20 05:43:00,67.1,66.5,30.07,South,175,1.0,7.0,98,0.00,,,0.03,Wunderground v.1.15,2013-05-20 09:43:00,
2013-05-20 05:49:00,67.1,66.5,30.07,South,175,1.0,7.0,98,0.00,,,0.03,Wunderground v.1.15,2013-05-20 09:49:00,
2013-05-20 05:55:00,67.1,66.5,30.07,SSW,202,2.0,7.0,98,0.00,,,0.03,Wunderground v.1.15,2013-05-20 09:55:00,
2013-05-20 06:00:00,67.1,66.5,30.07,SSW,202,2.0,2.0,98,0.00,,,0.03,Wunderground v.1.15,2013-05-20 10:00:00,
2013-05-20 06:06:00,67.1,66.5,30.07,SSW,202,2.0,3.0,98,0.00,,,0.03,Wunderground v.1.15,2013-05-20 10:06:00,
2013-05-20 06:12:00,67.0,66.4,30.08,SSW,201,2.0,3.0,98,0.00,,,0.03,Wunderground v.1.15,2013-05-20 10:12:00,
2013-05-20 06:18:00,67.0,66.4,30.08,SSW,208,2.0,3.0,98,0.00,,,0.03,Wunderground v.1.15,2013-05-20 10:18:00,
2013-05-20 06:23:00,67.0,66.4,30.08,SSW,206,2.0,3.0,98,0.00,,,0.03,Wunderground v.1.15,2013-05-20 10:23:00,
2013-05-20 06:29:00,67.0,66.4,30.08,SSW,202,3.0,4.0,98,0.00,,,0.03,Wunderground v.1.15,2013-05-20 10:29:00,
2013-05-20 06:35:00,67.0,66.4,30.08,South,188,2.0,6.0,98,0.00,,,0.03,Wunderground v.1.15,2013-05-20 10:35:00,
2013-05-20 06:41:00,67.0,66.4,30.08,South,188,2.0,3.0,98,0.00,,,0.03,Wunderground v.1.15,2013-05-20 10:41:00,
2013-05-20 06:47:00,67.0,66.4,30.08,SSE,161,3.0,6.0,98,0.00,,,0.03,Wunderground v.1.15,2013-05-20 10:47:00,
2013-05-20 06:53:00,67.0,66.4,30.08,SSW,207,3.0,6.0,98,0.00,,,0.03,Wunderground v.1.15,2013-05-20 10:53:00,
2013-05-20 06:59:00,66.9,66.3,30.08,SSW,200,3.0,6.0,98,0.00,,,0.03,Wunderground v.1.15,2013-05-20 10:59:00,
2013-05-20 07:04:00,67.0,66.4,30.09,SSW,202,3.0,3.0,98,0.00,,,0.03,Wunderground v.1.15,2013-05-20 11:04:00,
2013-05-20 07:10:00,66.9,66.3,30.09,East,94,2.0,2.0,98,0.00,,,0.03,Wunderground v.1.15,2013-05-20 11:10:00,
2013-05-20 07:16:00,66.9,66.3,30.09,SSE,159,2.0,5.0,98,0.00,,,0.03,Wunderground v.1.15,2013-05-20 11:16:00,
2013-05-20 07:22:00,66.8,66.2,30.09,South,186,3.0,4.0,98,0.00,,,0.03,Wunderground v.1.15,2013-05-20 11:22:00,
2013-05-20 07:28:00,66.7,66.1,30.09,South,178,3.0,4.0,98,0.00,,,0.03,Wunderground v.1.15,2013-05-20 11:28:00,
2013-05-20 07:34:00,66.6,66.0,30.09,SSW,205,3.0,6.0,98,0.00,,,0.03,Wunderground v.1.15,2013-05-20 11:34:00,
2013-05-20 07:40:00,66.4,65.5,30.10,SW,224,4.0,4.0,97,0.00,,,0.03,Wunderground v.1.15,2013-05-20 11:40:00,
2013-05-20 07:45:00,66.5,65.9,30.09,South,188,4.0,7.0,98,0.00,,,0.03,Wunderground v.1.15,2013-05-20 11:45:00,
2013-05-20 07:51:00,66.6,66.0,30.10,SSW,198,3.0,6.0,98,0.00,,,0.03,Wunderground v.1.15,2013-05-20 11:51:00,
2013-05-20 07:57:00,66.7,66.1,30.09,SSW,198,1.0,6.0,98,0.00,,,0.03,Wunderground v.1.15,2013-05-20 11:57:00,
2013-05-20 08:03:00,66.8,66.2,30.09,North,355,0.0,1.0,98,0.00,,,0.04,Wunderground v.1.15,2013-05-20 12:03:00,
2013-05-20 08:09:00,67.1,66.5,30.10,West,279,1.0,2.0,98,0.00,,,0.04,Wunderground v.1.15,2013-05-20 12:09:00,
2013-05-20 08:15:00,67.3,66.7,30.09,SSW,211,2.0,4.0,98,0.00,,,0.04,Wunderground v.1.15,2013-05-20 12:15:00,
2013-05-20 08:21:00,67.3,66.7,30.09,SSE,159,2.0,2.0,98,0.00,,,0.04,Wunderground v.1.15,2013-05-20 12:21:00,
2013-05-20 08:26:00,67.4,66.8,30.09,SE,131,1.0,4.0,98,0.00,,,0.04,Wunderground v.1.15,2013-05-20 12:26:00,
2013-05-20 08:32:00,67.4,66.8,30.09,SE,137,2.0,6.0,98,0.00,,,0.04,Wunderground v.1.15,2013-05-20 12:32:00,
2013-05-20 08:38:00,67.5,66.9,30.10,WSW,244,3.0,6.0,98,0.00,,,0.04,Wunderground v.1.15,2013-05-20 12:38:00,
2013-05-20 08:44:00,67.4,66.5,30.10,SSW,212,4.0,6.0,97,0.00,,,0.04,Wunderground v.1.15,2013-05-20 12:44:00,
2013-05-20 08:50:00,67.6,66.7,30.10,SSW,198,3.0,6.0,97,0.00,,,0.04,Wunderground v.1.15,2013-05-20 12:50:00,
2013-05-20 08:56:00,67.4,66.5,30.10,South,171,3.0,7.0,97,0.00,,,0.05,Wunderground v.1.15,2013-05-20 12:56:00,
2013-05-20 09:02:00,67.6,66.7,30.10,SSW,210,3.0,5.0,97,0.00,,,0.05,Wunderground v.1.15,2013-05-20 13:02:00,
2013-05-20 09:07:00,67.6,66.7,30.10,NE,42,3.0,5.0,97,0.00,,,0.05,Wunderground v.1.15,2013-05-20 13:07:00,
2013-05-20 09:13:00,67.9,67.0,30.10,SSW,206,2.0,3.0,97,0.00,,,0.05,Wunderground v.1.15,2013-05-20 13:13:00,
2013-05-20 09:19:00,67.9,67.0,30.10,SSW,194,3.0,4.0,97,0.00,,,0.05,Wunderground v.1.15,2013-05-20 13:19:00,
2013-05-20 09:25:00,68.2,67.3,30.10,SSW,209,4.0,5.0,97,0.00,,,0.05,Wunderground v.1.15,2013-05-20 13:25:00,
2013-05-20 09:30:00,68.3,67.1,30.10,SW,234,4.0,5.0,96,0.00,,,0.05,Wunderground v.1.15,2013-05-20 13:30:00,
2013-05-20 09:36:00,68.4,67.2,30.10,South,190,4.0,5.0,96,0.00,,,0.05,Wunderground v.1.15,2013-05-20 13:36:00,
2013-05-20 09:42:00,68.5,67.3,30.10,WSW,237,5.0,5.0,96,0.00,,,0.05,Wunderground v.1.15,2013-05-20 13:42:00,
2013-05-20 09:48:00,68.8,67.3,30.10,SSW,204,5.0,8.0,95,0.00,,,0.05,Wunderground v.1.15,2013-05-20 13:48:00,
2013-05-20 09:54:00,68.8,67.3,30.10,SW,225,5.0,7.0,95,0.00,,,0.05,Wunderground v.1.15,2013-05-20 13:54:00,
2013-05-20 10:00:00,69.0,67.2,30.10,South,171,4.0,4.0,94,0.00,,,0.05,Wunderground v.1.15,2013-05-20 14:00:00,
2013-05-20 10:06:00,69.3,67.5,30.10,South,169,3.0,4.0,94,0.00,,,0.05,Wunderground v.1.15,2013-05-20 14:06:00,
2013-05-20 10:11:00,69.5,68.0,30.10,South,171,3.0,5.0,95,0.00,,,0.05,Wunderground v.1.15,2013-05-20 14:11:00,
2013-05-20 10:17:00,69.7,67.6,30.11,SW,230,4.0,5.0,93,0.00,,,0.05,Wunderground v.1.15,2013-05-20 14:17:00,
2013-05-20 10:23:00,69.9,68.1,30.10,SSW,211,4.0,5.0,94,0.00,,,0.05,Wunderground v.1.15,2013-05-20 14:23:00,
2013-05-20 10:29:00,70.1,68.3,30.10,SSW,213,3.0,5.0,94,0.00,,,0.05,Wunderground v.1.15,2013-05-20 14:29:00,
2013-05-20 10:35:00,70.1,68.0,30.10,SSW,207,3.0,8.0,93,0.00,,,0.05,Wunderground v.1.15,2013-05-20 14:35:00,
2013-05-20 10:41:00,70.1,68.3,30.10,South,176,2.0,8.0,94,0.00,,,0.05,Wunderground v.1.15,2013-05-20 14:41:00,
2013-05-20 10:47:00,70.0,67.9,30.10,South,172,2.0,8.0,93,0.00,,,0.05,Wunderground v.1.15,2013-05-20 14:47:00,
2013-05-20 10:52:00,69.9,67.8,30.10,SSE,165,2.0,8.0,93,0.00,,,0.05,Wunderground v.1.15,2013-05-20 14:52:00,
2013-05-20 10:58:00,70.1,68.3,30.10,SSW,197,1.0,8.0,94,0.00,,,0.05,Wunderground v.1.15,2013-05-20 14:58:00,
2013-05-20 11:04:00,70.3,68.2,30.10,SSW,197,1.0,2.0,93,0.00,,,0.05,Wunderground v.1.15,2013-05-20 15:04:00,
2013-05-20 11:10:00,70.6,68.5,30.10,South,184,1.0,3.0,93,0.00,,,0.05,Wunderground v.1.15,2013-05-20 15:10:00,
2013-05-20 11:16:00,70.7,68.6,30.10,SSE,161,2.0,4.0,93,0.00,,,0.05,Wunderground v.1.15,2013-05-20 15:16:00,
2013-05-20 11:22:00,71.1,68.7,30.10,South,187,2.0,2.0,92,0.00,,,0.05,Wunderground v.1.15,2013-05-20 15:22:00,
2013-05-20 11:28:00,71.8,69.3,30.10,SSE,167,2.0,4.0,92,0.00,,,0.05,Wunderground v.1.15,2013-05-20 15:28:00,
2013-05-20 11:34:00,72.2,69.4,30.10,SSE,167,1.0,6.0,91,0.00,,,0.05,Wunderground v.1.15,2013-05-20 15:34:00,
2013-05-20 11:40:00,72.6,69.5,30.10,South,188,1.0,6.0,90,0.00,,,0.05,Wunderground v.1.15,2013-05-20 15:40:00,
2013-05-20 11:45:00,72.8,69.7,30.10,South,173,2.0,6.0,90,0.00,,,0.05,Wunderground v.1.15,2013-05-20 15:45:00,
2013-05-20 11:51:00,72.7,69.6,30.10,South,170,3.0,6.0,90,0.00,,,0.05,Wunderground v.1.15,2013-05-20 15:51:00,
2013-05-20 11:57:00,72.6,69.2,30.09,SSW,193,2.0,6.0,89,0.00,,,0.05,Wunderground v.1.15,2013-05-20 15:57:00,
2013-05-20 12:03:00,72.5,69.4,30.09,South,180,2.0,3.0,90,0.00,,,0.05,Wunderground v.1.15,2013-05-20 16:03:00,
2013-05-20 12:09:00,72.5,69.1,30.09,SSW,202,3.0,5.0,89,0.00,,,0.05,Wunderground v.1.15,2013-05-20 16:09:00,
2013-05-20 12:15:00,72.8,69.7,30.08,SSW,206,3.0,5.0,90,0.00,,,0.05,Wunderground v.1.15,2013-05-20 16:15:00,
2013-05-20 12:21:00,73.1,69.7,30.08,SSW,207,3.0,6.0,89,0.00,,,0.05,Wunderground v.1.15,2013-05-20 16:21:00,
2013-05-20 12:27:00,73.3,69.9,30.08,South,184,4.0,6.0,89,0.00,,,0.05,Wunderground v.1.15,2013-05-20 16:27:00,
2013-05-20 12:32:00,73.6,70.2,30.08,SSW,201,5.0,7.0,89,0.00,,,0.05,Wunderground v.1.15,2013-05-20 16:32:00,
2013-05-20 12:38:00,73.7,70.3,30.08,SSW,207,5.0,7.0,89,0.00,,,0.05,Wunderground v.1.15,2013-05-20 16:38:00,
2013-05-20 12:44:00,73.7,69.9,30.08,SSW,192,5.0,6.0,88,0.00,,,0.05,Wunderground v.1.15,2013-05-20 16:44:00,
2013-05-20 12:50:00,73.7,69.6,30.08,South,180,4.0,4.0,87,0.00,,,0.05,Wunderground v.1.15,2013-05-20 16:50:00,
2013-05-20 12:56:00,73.9,70.1,30.07,South,189,4.0,7.0,88,0.00,,,0.05,Wunderground v.1.15,2013-05-20 16:56:00,
2013-05-20 13:02:00,74.0,70.6,30.07,SSW,195,5.0,5.0,89,0.00,,,0.05,Wunderground v.1.15,2013-05-20 17:02:00,
2013-05-20 13:08:00,74.0,70.2,30.06,SSW,211,5.0,7.0,88,0.00,,,0.05,Wunderground v.1.15,2013-05-20 17:08:00,
2013-05-20 13:13:00,74.4,70.9,30.06,SSE,152,5.0,5.0,89,0.00,,,0.05,Wunderground v.1.15,2013-05-20 17:13:00,
2013-05-20 13:19:00,74.4,70.6,30.06,SSW,204,4.0,8.0,88,0.00,,,0.05,Wunderground v.1.15,2013-05-20 17:19:00,
2013-05-20 13:25:00,75.2,71.4,30.06,SW,217,5.0,6.0,88,0.00,,,0.05,Wunderground v.1.15,2013-05-20 17:25:00,
2013-05-20 13:31:00,75.9,70.0,30.06,SSW,199,5.0,7.0,82,0.00,,,0.05,Wunderground v.1.15,2013-05-20 17:31:00,
2013-05-20 13:37:00,76.5,70.9,30.06,WSW,253,4.0,7.0,83,0.00,,,0.05,Wunderground v.1.15,2013-05-20 17:37:00,
2013-05-20 13:43:00,76.9,71.0,30.05,SSW,196,5.0,7.0,82,0.00,,,0.05,Wunderground v.1.15,2013-05-20 17:43:00,
2013-05-20 13:49:00,76.6,70.3,30.06,SSW,205,5.0,7.0,81,0.00,,,0.05,Wunderground v.1.15,2013-05-20 17:49:00,
2013-05-20 13:54:00,76.7,70.8,30.06,SW,219,5.0,10.0,82,0.00,,,0.05,Wunderground v.1.15,2013-05-20 17:54:00,
2013-05-20 14:00:00,76.8,70.2,30.06,SSW,194,6.0,9.0,80,0.00,,,0.05,Wunderground v.1.15,2013-05-20 18:00:00,
2013-05-20 14:06:00,74.9,68.7,30.07,WSW,241,8.0,15.0,81,0.00,,,0.05,Wunderground v.1.15,2013-05-20 18:06:00,
2013-05-20 14:12:00,72.0,66.6,30.07,WNW,291,10.0,10.0,83,0.00,,,0.05,Wunderground v.1.15,2013-05-20 18:12:00,
2013-05-20 14:18:00,70.7,66.0,30.06,WNW,295,5.0,10.0,85,0.00,,,0.06,Wunderground v.1.15,2013-05-20 18:18:00,
2013-05-20 14:24:00,69.7,66.3,30.06,WSW,242,4.0,5.0,89,0.00,,,0.06,Wunderground v.1.15,2013-05-20 18:24:00,
2013-05-20 14:30:00,69.0,66.3,30.06,WSW,245,3.0,3.0,91,0.00,,,0.06,Wunderground v.1.15,2013-05-20 18:30:00,
2013-05-20 14:36:00,68.6,66.5,30.06,West,273,2.0,9.0,93,0.00,,,0.06,Wunderground v.1.15,2013-05-20 18:36:00,
2013-05-20 14:42:00,68.5,66.4,30.06,NW,309,1.0,9.0,93,0.00,,,0.06,Wunderground v.1.15,2013-05-20 18:42:00,
2013-05-20 14:48:00,68.5,66.7,30.06,NW,309,0.0,9.0,94,0.00,,,0.06,Wunderground v.1.15,2013-05-20 18:48:00,
2013-05-20 14:53:00,68.8,67.3,30.05,NNW,344,1.0,9.0,95,0.00,,,0.06,Wunderground v.1.15,2013-05-20 18:53:00,
2013-05-20 14:59:00,69.0,67.5,30.05,NNW,344,1.0,9.0,95,0.00,,,0.07,Wunderground v.1.15,2013-05-20 18:59:00,
2013-05-20 15:05:00,69.1,67.6,30.05,NNW,344,1.0,2.0,95,0.00,,,0.07,Wunderground v.1.15,2013-05-20 19:05:00,
2013-05-20 15:11:00,69.0,67.5,30.05,NNW,345,1.0,1.0,95,0.00,,,0.07,Wunderground v.1.15,2013-05-20 19:11:00,
2013-05-20 15:17:00,69.0,67.5,30.06,NNW,345,0.0,1.0,95,0.00,,,0.07,Wunderground v.1.15,2013-05-20 19:17:00,
2013-05-20 15:23:00,68.9,67.4,30.06,NNW,345,0.0,1.0,95,0.00,,,0.07,Wunderground v.1.15,2013-05-20 19:23:00,
2013-05-20 15:29:00,69.0,67.8,30.06,NNW,344,1.0,3.0,96,0.00,,,0.07,Wunderground v.1.15,2013-05-20 19:29:00,
2013-05-20 15:34:00,69.1,67.9,30.06,SE,146,1.0,17.0,96,0.00,,,0.07,Wunderground v.1.15,2013-05-20 19:34:00,
2013-05-20 15:40:00,69.0,67.8,30.06,SSE,168,1.0,17.0,96,0.00,,,0.08,Wunderground v.1.15,2013-05-20 19:40:00,
2013-05-20 15:46:00,68.9,67.7,30.06,South,188,2.0,17.0,96,0.00,,,0.08,Wunderground v.1.15,2013-05-20 19:46:00,
2013-05-20 15:52:00,68.5,67.3,30.05,SSW,210,3.0,17.0,96,0.00,,,0.08,Wunderground v.1.15,2013-05-20 19:52:00,
2013-05-20 15:58:00,68.2,67.0,30.05,South,188,3.0,17.0,96,0.00,,,0.08,Wunderground v.1.15,2013-05-20 19:58:00,
2013-05-20 16:03:00,68.2,66.7,30.05,South,188,2.0,2.0,95,0.00,,,0.08,Wunderground v.1.15,2013-05-20 20:03:00,
2013-05-20 16:09:00,68.2,67.0,30.05,South,187,1.0,3.0,96,0.00,,,0.09,Wunderground v.1.15,2013-05-20 20:09:00,
2013-05-20 16:15:00,68.3,67.1,30.05,South,175,0.0,1.0,96,0.00,,,0.09,Wunderground v.1.15,2013-05-20 20:15:00,
2013-05-20 16:20:00,68.3,67.1,30.06,SSE,156,1.0,1.0,96,0.00,,,0.09,Wunderground v.1.15,2013-05-20 20:20:00,
2013-05-20 16:26:00,68.2,67.0,30.06,South,171,1.0,3.0,96,0.00,,,0.09,Wunderground v.1.15,2013-05-20 20:26:00,
2013-05-20 16:32:00,68.3,67.1,30.06,South,186,1.0,3.0,96,0.00,,,0.09,Wunderground v.1.15,2013-05-20 20:32:00,
2013-05-20 16:38:00,68.3,67.1,30.06,South,188,2.0,3.0,96,0.00,,,0.09,Wunderground v.1.15,2013-05-20 20:38:00,
2013-05-20 16:44:00,68.4,66.9,30.05,South,184,1.0,3.0,95,0.00,,,0.09,Wunderground v.1.15,2013-05-20 20:44:00,
2013-05-20 16:50:00,68.8,67.6,30.05,South,186,2.0,3.0,96,0.00,,,0.10,Wunderground v.1.15,2013-05-20 20:50:00,
2013-05-20 16:55:00,69.5,68.3,30.05,South,183,2.0,4.0,96,0.00,,,0.10,Wunderground v.1.15,2013-05-20 20:55:00,
2013-05-20 17:00:00,69.9,68.1,30.04,South,173,2.0,5.0,94,0.00,,,0.10,Wunderground v.1.15,2013-05-20 21:00:00,
2013-05-20 17:05:00,70.5,69.0,30.04,South,179,3.0,5.0,95,0.00,,,0.10,Wunderground v.1.15,2013-05-20 21:05:00,
2013-05-20 17:11:00,71.1,69.0,30.03,SSW,194,3.0,5.0,93,0.00,,,0.10,Wunderground v.1.15,2013-05-20 21:11:00,
2013-05-20 17:17:00,71.3,69.2,30.03,South,189,4.0,5.0,93,0.00,,,0.11,Wunderground v.1.15,2013-05-20 21:17:00,
2013-05-20 17:23:00,71.6,68.8,30.03,SW,216,4.0,9.0,91,0.00,,,0.11,Wunderground v.1.15,2013-05-20 21:23:00,
2013-05-20 17:29:00,71.3,68.9,30.03,South,182,4.0,9.0,92,0.00,,,0.11,Wunderground v.1.15,2013-05-20 21:29:00,
2013-05-20 17:35:00,71.2,68.8,30.04,SSW,198,3.0,6.0,92,0.00,,,0.11,Wunderground v.1.15,2013-05-20 21:35:00,
2013-05-20 17:41:00,71.0,68.6,30.03,South,174,3.0,6.0,92,0.00,,,0.11,Wunderground v.1.15,2013-05-20 21:41:00,
2013-05-20 17:46:00,70.9,68.8,30.03,South,171,3.0,6.0,93,0.00,,,0.11,Wunderground v.1.15,2013-05-20 21:46:00,
2013-05-20 17:52:00,70.8,68.7,30.03,SSW,203,5.0,6.0,93,0.00,,,0.11,Wunderground v.1.15,2013-05-20 21:52:00,
2013-05-20 17:58:00,70.7,68.6,30.03,South,178,4.0,6.0,93,0.00,,,0.11,Wunderground v.1.15,2013-05-20 21:58:00,
2013-05-20 18:04:00,70.8,68.7,30.03,SSW,205,3.0,4.0,93,0.00,,,0.12,Wunderground v.1.15,2013-05-20 22:04:00,
2013-05-20 18:10:00,70.7,68.6,30.03,South,187,3.0,4.0,93,0.00,,,0.12,Wunderground v.1.15,2013-05-20 22:10:00,
2013-05-20 18:16:00,70.8,68.7,30.03,SSW,209,3.0,5.0,93,0.00,,,0.12,Wunderground v.1.15,2013-05-20 22:16:00,
2013-05-20 18:22:00,71.0,69.2,30.02,South,182,3.0,4.0,94,0.00,,,0.12,Wunderground v.1.15,2013-05-20 22:22:00,
2013-05-20 18:28:00,71.5,69.7,30.02,SSE,166,2.0,4.0,94,0.00,,,0.12,Wunderground v.1.15,2013-05-20 22:28:00,
2013-05-20 18:33:00,71.6,69.5,30.02,South,180,2.0,9.0,93,0.00,,,0.12,Wunderground v.1.15,2013-05-20 22:33:00,
2013-05-20 18:39:00,71.5,69.4,30.02,South,180,1.0,9.0,93,0.00,,,0.12,Wunderground v.1.15,2013-05-20 22:39:00,
2013-05-20 18:45:00,71.2,69.1,30.02,SSE,166,2.0,9.0,93,0.00,,,0.12,Wunderground v.1.15,2013-05-20 22:45:00,
2013-05-20 18:51:00,71.1,69.0,30.02,SSW,192,1.0,9.0,93,0.00,,,0.13,Wunderground v.1.15,2013-05-20 22:51:00,
2013-05-20 18:56:00,71.0,69.2,30.02,SSW,192,1.0,9.0,94,0.00,,,0.13,Wunderground v.1.15,2013-05-20 22:56:00,
2013-05-20 19:02:00,70.8,69.0,30.02,SSW,192,1.0,1.0,94,0.00,,,0.13,Wunderground v.1.15,2013-05-20 23:02:00,
2013-05-20 19:07:00,70.7,68.9,30.02,SSW,192,1.0,3.0,94,0.00,,,0.13,Wunderground v.1.15,2013-05-20 23:07:00,
2013-05-20 19:13:00,70.6,68.8,30.02,SSW,192,1.0,1.0,94,0.00,,,0.13,Wunderground v.1.15,2013-05-20 23:13:00,
2013-05-20 19:19:00,70.6,69.1,30.02,SSW,200,1.0,2.0,95,0.00,,,0.13,Wunderground v.1.15,2013-05-20 23:19:00,
2013-05-20 19:25:00,70.5,69.0,30.03,SSW,199,1.0,2.0,95,0.00,,,0.13,Wunderground v.1.15,2013-05-20 23:25:00,
2013-05-20 19:31:00,70.4,68.9,30.03,SSW,199,1.0,3.0,95,0.00,,,0.13,Wunderground v.1.15,2013-05-20 23:31:00,
2013-05-20 19:36:00,70.2,68.7,30.03,SSW,199,2.0,6.0,95,0.00,,,0.13,Wunderground v.1.15,2013-05-20 23:36:00,
2013-05-20 19:42:00,70.1,68.6,30.03,SSW,199,3.0,6.0,95,0.00,,,0.13,Wunderground v.1.15,2013-05-20 23:42:00,
2013-05-20 19:48:00,69.9,68.4,30.03,South,173,2.0,6.0,95,0.00,,,0.14,Wunderground v.1.15,2013-05-20 23:48:00,
2013-05-20 19:54:00,69.8,68.3,30.04,South,185,2.0,6.0,95,0.00,,,0.14,Wunderground v.1.15,2013-05-20 23:54:00,
2013-05-20 20:00:00,69.6,68.1,30.04,South,185,2.0,3.0,95,0.00,,,0.14,Wunderground v.1.15,2013-05-21 00:00:00,
2013-05-20 20:06:00,69.5,68.0,30.04,South,170,2.0,4.0,95,0.00,,,0.14,Wunderground v.1.15,2013-05-21 00:06:00,
2013-05-20 20:12:00,69.4,67.9,30.04,South,171,3.0,3.0,95,0.00,,,0.14,Wunderground v.1.15,2013-05-21 00:12:00,
2013-05-20 20:17:00,69.3,67.8,30.04,South,171,2.0,3.0,95,0.00,,,0.14,Wunderground v.1.15,2013-05-21 00:17:00,
2013-05-20 20:23:00,69.1,67.6,30.04,South,171,1.0,1.0,95,0.00,,,0.14,Wunderground v.1.15,2013-05-21 00:23:00,
2013-05-20 20:29:00,68.9,67.7,30.04,South,171,1.0,2.0,96,0.00,,,0.14,Wunderground v.1.15,2013-05-21 00:29:00,
2013-05-20 20:35:00,68.8,67.6,30.04,South,171,2.0,4.0,96,0.00,,,0.14,Wunderground v.1.15,2013-05-21 00:35:00,
2013-05-20 20:41:00,68.7,67.5,30.04,South,171,2.0,4.0,96,0.00,,,0.15,Wunderground v.1.15,2013-05-21 00:41:00,
2013-05-20 20:47:00,68.7,67.5,30.04,South,171,1.0,4.0,96,0.00,,,0.15,Wunderground v.1.15,2013-05-21 00:47:00,
2013-05-20 20:53:00,68.7,67.5,30.04,South,171,2.0,4.0,96,0.00,,,0.15,Wunderground v.1.15,2013-05-21 00:53:00,
2013-05-20 20:58:00,68.6,67.4,30.04,South,171,2.0,4.0,96,0.00,,,0.15,Wunderground v.1.15,2013-05-21 00:58:00,
2013-05-20 21:04:00,68.6,67.7,30.04,South,171,1.0,2.0,97,0.00,,,0.15,Wunderground v.1.15,2013-05-21 01:04:00,
2013-05-20 21:10:00,68.5,67.6,30.04,South,171,1.0,1.0,97,0.00,,,0.15,Wunderground v.1.15,2013-05-21 01:10:00,
2013-05-20 21:16:00,68.5,67.6,30.05,South,171,1.0,2.0,97,0.00,,,0.15,Wunderground v.1.15,2013-05-21 01:16:00,
2013-05-20 21:22:00,68.5,67.6,30.04,South,171,1.0,1.0,97,0.00,,,0.15,Wunderground v.1.15,2013-05-21 01:22:00,
2013-05-20 21:28:00,68.5,67.6,30.05,South,171,1.0,2.0,97,0.00,,,0.15,Wunderground v.1.15,2013-05-21 01:28:00,
2013-05-20 21:34:00,68.5,67.6,30.05,South,171,1.0,5.0,97,0.00,,,0.15,Wunderground v.1.15,2013-05-21 01:34:00,
2013-05-20 21:39:00,68.5,67.6,30.05,South,171,0.0,5.0,97,0.00,,,0.15,Wunderground v.1.15,2013-05-21 01:39:00,
2013-05-20 21:45:00,68.5,67.6,30.05,South,171,0.0,5.0,97,0.00,,,0.15,Wunderground v.1.15,2013-05-21 01:45:00,
2013-05-20 21:51:00,68.5,67.6,30.05,South,171,0.0,5.0,97,0.00,,,0.15,Wunderground v.1.15,2013-05-21 01:51:00,
2013-05-20 21:57:00,68.6,67.7,30.05,South,171,1.0,5.0,97,0.00,,,0.15,Wunderground v.1.15,2013-05-21 01:57:00,
2013-05-20 22:03:00,68.5,67.6,30.04,South,171,1.0,1.0,97,0.00,,,0.15,Wunderground v.1.15,2013-05-21 02:03:00,
2013-05-20 22:09:00,68.5,67.6,30.05,South,171,0.0,1.0,97,0.00,,,0.16,Wunderground v.1.15,2013-05-21 02:09:00,
2013-05-20 22:15:00,68.3,67.4,30.05,South,171,0.0,0.0,97,0.00,,,0.16,Wunderground v.1.15,2013-05-21 02:15:00,
2013-05-20 22:21:00,68.2,67.3,30.05,South,171,0.0,1.0,97,0.00,,,0.16,Wunderground v.1.15,2013-05-21 02:21:00,
2013-05-20 22:27:00,68.1,67.2,30.04,South,171,0.0,1.0,97,0.00,,,0.16,Wunderground v.1.15,2013-05-21 02:27:00,
2013-05-20 22:33:00,68.1,67.2,30.04,South,171,0.0,4.0,97,0.00,,,0.16,Wunderground v.1.15,2013-05-21 02:33:00,
2013-05-20 22:38:00,68.0,67.1,30.04,South,171,0.0,4.0,97,0.00,,,0.16,Wunderground v.1.15,2013-05-21 02:38:00,
2013-05-20 22:44:00,68.1,67.2,30.04,South,171,0.0,4.0,97,0.00,,,0.16,Wunderground v.1.15,2013-05-21 02:44:00,
2013-05-20 22:50:00,68.1,67.2,30.03,South,171,1.0,1.0,97,0.00,,,0.16,Wunderground v.1.15,2013-05-21 02:50:00,
2013-05-20 22:56:00,68.2,67.3,30.03,South,190,2.0,4.0,97,0.00,,,0.16,Wunderground v.1.15,2013-05-21 02:56:00,
2013-05-20 23:02:00,68.3,67.4,30.02,SSW,195,2.0,4.0,97,0.00,,,0.16,Wunderground v.1.15,2013-05-21 03:02:00,
2013-05-20 23:08:00,68.3,67.7,30.02,SSW,202,4.0,6.0,98,0.00,,,0.16,Wunderground v.1.15,2013-05-21 03:08:00,
2013-05-20 23:14:00,68.3,67.7,30.02,SSW,196,5.0,6.0,98,0.00,,,0.16,Wunderground v.1.15,2013-05-21 03:14:00,
2013-05-20 23:19:00,68.3,67.7,30.02,SSW,202,4.0,6.0,98,0.00,,,0.16,Wunderground v.1.15,2013-05-21 03:19:00,
2013-05-20 23:25:00,68.2,67.6,30.02,South,177,5.0,9.0,98,0.00,,,0.17,Wunderground v.1.15,2013-05-21 03:25:00,
2013-05-20 23:31:00,68.2,67.6,30.02,SSW,211,5.0,6.0,98,0.00,,,0.17,Wunderground v.1.15,2013-05-21 03:31:00,
2013-05-20 23:37:00,68.2,67.6,30.02,SSW,211,4.0,6.0,98,0.00,,,0.17,Wunderground v.1.15,2013-05-21 03:37:00,
2013-05-20 23:43:00,68.1,67.5,30.02,SSW,202,4.0,5.0,98,0.00,,,0.17,Wunderground v.1.15,2013-05-21 03:43:00,
2013-05-20 23:49:00,68.1,67.5,30.03,SSW,205,5.0,8.0,98,0.00,,,0.17,Wunderground v.1.15,2013-05-21 03:49:00,
2013-05-20 23:55:00,68.1,67.5,30.03,South,173,5.0,6.0,98,0.00,,,0.17,Wunderground v.1.15,2013-05-21 03:55:00,